[[{"header":{"parameterUnit":"m.s-1","parameterCategory":2,"la1":30.2991,"la2":30.254,"lo1":-89.0895,"lo2":-89.0444,"dy":0.0017,"dx":0.0017,"nx":28,"ny":28,"refTime":"2025-03-31T09:00:00:Z","depth":"0","parameterNumber":2,"parameterNumberName":"U-component_of_CURRENTS"},"data":[0,0,0,0,0,0,0,0,0,0,0,0,0,0,0,0,0,0,0,0,0,0,0,0,0,0,0,0,0,0,0,0,0,0,0,0,0,0,0,0,0,0,0,0,0,0,0,0,0,0,0,0,0,0,0,0,0,0,0.3578,0.3579,0,0.3609,0.3609,0.3609,0.3576,0.3575,0.3574,0.3573,0.3541,0.3541,0.3541,0,0,0,0,0,0,0,0,0,0,0,0,0,0.3392,0.3396,0.3578,0.3579,0.3579,0.3609,0.3609,0.3609,0.3576,0.3575,0.3574,0.3573,0.3541,0.3541,0.3541,0,0,0,0,0,0,0,0,0,0,0,0,0,0.3449,0.3397,0.3578,0.357,0.357,0.3609,0.3609,0.3609,0.3576,0.3575,0.3574,0.3573,0.3541,0.3541,0.3541,0.3567,0,0,0.3541,0.3541,0,0,0,0,0,0,0,0,0.3446,0.3456,0.357,0.357,0.357,0.3591,0.3532,0.3593,0.3577,0.3569,0.3573,0.3572,0.3556,0.3554,0.3558,0.3566,0.3564,0.3541,0.3541,0.3541,0.3541,0,0,0,0,0,0,0,0.3442,0.3454,0.3586,0.3571,0.3571,0.3531,0.3538,0.3543,0.3565,0.357,0.3569,0.3579,0.3555,0.3558,0.3557,0.3564,0.3541,0.3541,0.3541,0.3541,0.3624,0.3626,0,0,0,0,0,0,0.3455,0.3451,0.3585,0.3587,0.3508,0.3536,0.3544,0.3582,0.3566,0.3565,0.358,0.3578,0.3559,0.3557,0.3556,0.3629,0.3541,0.3541,0.3541,0.3622,0.3625,0.3627,0,0,0,0,0,0,0.3451,0.3467,0.3584,0.352,0.3533,0.3542,0.3584,0.3584,0.3592,0.3576,0.3571,0.359,0.3558,0.3556,0.3578,0.3625,0.3541,0.3541,0.3619,0.3623,0.3626,0.3747,0,0,0,0,0,0,0.3446,0.3467,0.3494,0.3523,0.3537,0.362,0.3586,0.3585,0.3602,0.3599,0.3583,0.3578,0.3557,0.3579,0.3578,0.3624,0.3541,0.3617,0.3621,0.3625,0.374,0.3754,0.3766,0,0,0,0,0,0.344,0.3487,0.3496,0.3512,0.3578,0.3622,0.3626,0.3622,0.3604,0.3621,0.3614,0.3579,0.3605,0.3581,0.358,0.3626,0.3615,0.362,0.3625,0.3734,0.3751,0.3765,0,0,0,0,0,0,0.3406,0.349,0.35,0.3567,0.3598,0.3618,0.3635,0.3633,0.3642,0.3635,0.3608,0.3605,0.3645,0.362,0.3594,0.3663,0.3604,0.3609,0.3688,0.3704,0.3716,0.3744,0.3541,0,0,0,0,0,0.3419,0.3489,0.3537,0.359,0.3608,0.3623,0.3638,0.3642,0.3655,0.3656,0.3654,0.3651,0.3667,0.3671,0.3676,0.3713,0.3706,0.3742,0.3755,0.3766,0.3789,0.382,0.3838,0.3644,0.3644,0.3644,0,0,0.3413,0.3476,0.3508,0.3589,0.3609,0.3649,0.3628,0.3664,0.3703,0.3653,0.3701,0.3698,0.3687,0.3733,0.3748,0.3716,0.3819,0.3773,0.3782,0.3799,0.3827,0.3846,0.3863,0.3647,0.3647,0.3646,0,0,0.3442,0.3501,0.356,0.3598,0.3653,0.3673,0.3688,0.3724,0.3745,0.3795,0.3773,0.3804,0.3819,0.3833,0.3837,0.3925,0.3888,0.3921,0.4009,0.4039,0.4055,0.407,0.4091,0.4106,0.3925,0.3926,0.3926,0,0.3421,0.3518,0.3575,0.3634,0.3664,0.3688,0.3728,0.3768,0.3809,0.384,0.3824,0.3889,0.3874,0.3943,0.3976,0.3957,0.3962,0.3949,0.4057,0.4071,0.4083,0.4101,0.4116,0.3932,0.3931,0.3931,0.393,0,0.3493,0.3558,0.3593,0.3688,0.3728,0.377,0.383,0.3879,0.3906,0.3941,0.4024,0.4031,0.4061,0.4074,0.4054,0.4144,0.4115,0.4071,0.4018,0.411,0.4123,0.4137,0.3941,0.3939,0.3937,0.3935,0,0,0.3446,0.3611,0.3615,0.366,0.3757,0.3789,0.3882,0.3964,0.402,0.4086,0.4163,0.4222,0.4226,0.4233,0.4222,0.4265,0.4356,0.4217,0.4216,0.4241,0.4427,0.4227,0.4221,0.4331,0.4334,0.4336,0.4403,0,0.3464,0.3583,0.3664,0.3742,0.3793,0.3862,0.3945,0.4026,0.4095,0.418,0.424,0.4299,0.4287,0.4303,0.4354,0.4347,0.4398,0.4343,0.4333,0.4333,0.4145,0.4232,0.4081,0.4111,0.4415,0.4418,0.4419,0,0.3488,0.3569,0.3659,0.3781,0.3807,0.3856,0.3974,0.4048,0.4186,0.4252,0.4346,0.4382,0.4475,0.4435,0.452,0.4485,0.4479,0.4481,0.4481,0.4263,0.4157,0.4067,0.4124,0.4047,0.4439,0.4438,0.4436,0,0.3418,0.3552,0.3625,0.3664,0.3809,0.3855,0.3919,0.4054,0.4127,0.4283,0.4342,0.447,0.4502,0.456,0.456,0.455,0.463,0.4597,0.4427,0.4413,0.4265,0.423,0.4244,0.467,0.467,0.467,0.467,0,0.3409,0.3457,0.3592,0.3626,0.3699,0.3802,0.3882,0.3991,0.4129,0.4204,0.4346,0.4415,0.4534,0.4583,0.4601,0.4542,0.4655,0.4467,0.4423,0.4299,0.4268,0.4172,0.4135,0.4672,0.4672,0.4671,0.4671,0,0.3334,0.343,0.3507,0.3639,0.3672,0.3712,0.3839,0.3904,0.4043,0.4144,0.4194,0.4378,0.4431,0.4516,0.4588,0.4535,0.4396,0.4482,0.432,0.4252,0.3965,0.3939,0.3741,0.3632,0.4315,0.4311,0.4307,0,0.3315,0.3351,0.3478,0.3513,0.3569,0.3637,0.3692,0.3846,0.3914,0.4094,0.4134,0.4242,0.4296,0.4334,0.4293,0.4289,0.422,0.4111,0.4048,0.3941,0.3884,0.3756,0.3673,0.3928,0.3922,0.3916,0.3912,0,0.3261,0.3307,0.3373,0.3436,0.3487,0.3547,0.3625,0.367,0.3831,0.3909,0.4002,0.406,0.4094,0.4015,0.3981,0.3961,0.3896,0.3989,0.3951,0.3636,0.3432,0.3307,0.3899,0.3864,0.3869,0.3872,0.3875,0.3877,0.3201,0.3224,0.3299,0.3349,0.34,0.3429,0.3415,0.3497,0.3553,0.3594,0.3757,0.3729,0.377,0.3692,0.3656,0.3482,0.3494,0.3393,0.3395,0.3294,0.3097,0.3549,0.3395,0.3397,0.3398,0.34,0.3401,0,0.3111,0.3155,0.3204,0.324,0.3226,0.3301,0.3344,0.3286,0.3254,0.3319,0.3335,0.3292,0.3219,0.3239,0.3118,0.2963,0.2882,0.2885,0.276,0.2727,0.3218,0.3108,0.2794,0.2794,0.2794,0.2794,0.2794,0.2794,0.3067,0.3076,0.3102,0.3045,0.3056,0.297,0.2953,0.2895,0.289,0.2781,0.271,0.2737,0.2872,0.2854,0.2708,0.2641,0.2487,0.2313,0.2337,0.2791,0.2842,0.2891,0.2783,0.2405,0.2405,0.1764,0.1759,0.1755]},{"header":{"parameterUnit":"m.s-1","parameterCategory":2,"la1":30.2991,"la2":30.254,"lo1":-89.0895,"lo2":-89.0444,"dy":0.0017,"dx":0.0017,"nx":28,"ny":28,"refTime":"2025-03-31T09:00:00:Z","depth":"0","parameterNumber":3,"parameterNumberName":"V-component_of_CURRENTS"},"data":[0,0,0,0,0,0,0,0,0,0,0,0,0,0,0,0,0,0,0,0,0,0,0,0,0,0,0,0,0,0,0,0,0,0,0,0,0,0,0,0,0,0,0,0,0,0,0,0,0,0,0,0,0,0,0,0,0,0,0.002,0.0019,0,-0.0029,-0.003,-0.0031,-0.0055,-0.0055,-0.0054,-0.0054,-0.0107,-0.0108,-0.011,0,0,0,0,0,0,0,0,0,0,0,0,0,0.0089,0.0087,0.002,0.0019,0.0019,-0.0029,-0.003,-0.0031,-0.0055,-0.0055,-0.0054,-0.0054,-0.0107,-0.0108,-0.011,0,0,0,0,0,0,0,0,0,0,0,0,0,0.0051,0.0087,0.002,0.0001,-0.0001,-0.0029,-0.003,-0.0031,-0.0055,-0.0055,-0.0054,-0.0054,-0.0106,-0.0108,-0.011,-0.0125,0,0,-0.0117,-0.0118,0,0,0,0,0,0,0,0,0.0053,0.0048,0.0005,0.0003,0.0,-0.0035,-0.0025,-0.0063,-0.0055,-0.0035,-0.0054,-0.0054,-0.0083,-0.0087,-0.0097,-0.0128,-0.013,-0.0117,-0.0118,-0.0119,-0.012,0,0,0,0,0,0,0,0.0055,0.005,-0.0,0.0004,0.0001,-0.0006,-0.0011,-0.0032,-0.0059,-0.0036,-0.0038,-0.0043,-0.0084,-0.0095,-0.0099,-0.0131,-0.0117,-0.0119,-0.012,-0.0121,-0.0177,-0.0177,0,0,0,0,0,0,0.0062,0.0052,0.0001,-0.0002,0.0028,-0.0007,-0.0013,-0.0024,-0.0059,-0.0064,-0.0043,-0.0044,-0.0091,-0.0096,-0.0101,-0.0111,-0.0119,-0.0121,-0.0123,-0.0177,-0.0177,-0.0178,0,0,0,0,0,0,0.0064,0.0058,0.0003,0.0025,0.0018,-0.0009,-0.0021,-0.0025,-0.0033,-0.0064,-0.0069,-0.0045,-0.0092,-0.0098,-0.0115,-0.0114,-0.0122,-0.0124,-0.0177,-0.0177,-0.0177,-0.0139,0,0,0,0,0,0,0.0066,0.0059,0.0055,0.0025,0.0017,-0.0003,-0.0021,-0.0026,-0.0036,-0.0038,-0.0067,-0.0073,-0.0092,-0.0112,-0.0117,-0.0117,-0.0126,-0.0177,-0.0177,-0.0177,-0.014,-0.0138,-0.0136,0,0,0,0,0,0.0069,0.0068,0.0055,0.0049,0.0011,-0.0003,-0.0008,-0.0026,-0.0036,-0.0034,-0.0058,-0.0071,-0.0118,-0.0113,-0.012,-0.012,-0.0176,-0.0177,-0.0177,-0.0141,-0.0138,-0.0136,0,0,0,0,0,0,0.01,0.0064,0.005,0.0038,0.0022,-0.0006,-0.0007,-0.0023,-0.0041,-0.0042,-0.0073,-0.0079,-0.0095,-0.0114,-0.0109,-0.0139,-0.015,-0.0152,-0.012,-0.0118,-0.0116,-0.0095,-0.0128,0,0,0,0,0,0.0103,0.0091,0.006,0.0054,0.0046,0.0019,0.0011,-0.0001,-0.0022,-0.003,-0.0054,-0.008,-0.0103,-0.0114,-0.0136,-0.0152,-0.0149,-0.0158,-0.0155,-0.0154,-0.0141,-0.0138,-0.0134,-0.0179,-0.0179,-0.0179,0,0,0.0115,0.0093,0.0087,0.006,0.0044,0.0044,0.0015,0.0008,0.0007,-0.0033,-0.0043,-0.0073,-0.0106,-0.0123,-0.0132,-0.0137,-0.0139,-0.0154,-0.0152,-0.0141,-0.0138,-0.0133,-0.0129,-0.0179,-0.0179,-0.0179,0,0,0.0141,0.0112,0.0115,0.0104,0.0085,0.0066,0.0067,0.0039,0.0025,0.0008,-0.0021,-0.0048,-0.0084,-0.0106,-0.0123,-0.0124,-0.0128,-0.0135,-0.0108,-0.0105,-0.0101,-0.0097,-0.0081,-0.0076,-0.0135,-0.0135,-0.0135,0,0.0159,0.0153,0.0117,0.0121,0.0121,0.008,0.0095,0.0072,0.0042,0.0038,0.0013,-0.0038,-0.0075,-0.0089,-0.0098,-0.0118,-0.011,-0.0113,-0.01,-0.0097,-0.0093,-0.0077,-0.0072,-0.0133,-0.0133,-0.0133,-0.0134,0,0.019,0.0187,0.0191,0.0179,0.0173,0.0179,0.0147,0.0138,0.011,0.0088,0.0064,0.0008,-0.0016,-0.0044,-0.0076,-0.0076,-0.0074,-0.0096,-0.01,-0.0086,-0.0071,-0.0066,-0.013,-0.0131,-0.0132,-0.0132,0,0,0.0232,0.0216,0.022,0.0229,0.0207,0.021,0.0205,0.0196,0.0209,0.0152,0.0166,0.0088,0.0058,0.0036,-0.0011,-0.0027,-0.0012,-0.0051,-0.0052,-0.0023,0.0012,-0.0004,-0.0,-0.0027,-0.0026,-0.0026,0.0017,0,0.0272,0.0297,0.0275,0.0306,0.0319,0.0288,0.0293,0.0278,0.0255,0.0255,0.0185,0.017,0.0088,0.0077,0.0048,0.0011,0.0001,-0.0021,-0.0015,-0.0015,-0.0022,0.0004,0.0037,0.0076,0.0022,0.0023,0.0023,0,0.0315,0.0325,0.0363,0.0376,0.038,0.0394,0.0411,0.041,0.0391,0.0372,0.0338,0.0288,0.0246,0.0175,0.0123,0.0118,0.0069,0.0031,0.0031,0.0008,-0.0023,0.005,0.0086,-0.0024,0.003,0.0029,0.0029,0,0.0372,0.0391,0.0425,0.043,0.0435,0.0455,0.0461,0.0454,0.0474,0.0454,0.0471,0.0403,0.0392,0.0314,0.0213,0.0178,0.0173,0.0118,0.006,0.0059,0.0084,0.0083,0.0025,0.0089,0.0089,0.0089,0.0089,0,0.0425,0.0453,0.0459,0.0481,0.0534,0.0518,0.0577,0.0568,0.0588,0.0639,0.054,0.0575,0.0426,0.0392,0.028,0.0201,0.0229,0.0081,0.0071,0.0097,0.0097,-0.0002,-0.0078,0.009,0.009,0.009,0.0089,0,0.048,0.048,0.0523,0.0546,0.0561,0.0603,0.0656,0.0705,0.0702,0.0774,0.0772,0.0727,0.0686,0.0544,0.0443,0.0309,0.0158,0.0179,0.0223,0.0215,0.0024,-0.0051,-0.0115,-0.0174,0.012,0.012,0.012,0,0.0507,0.0535,0.0579,0.062,0.0636,0.0695,0.0746,0.0761,0.0827,0.0882,0.0938,0.0908,0.0932,0.0771,0.0532,0.0354,0.0209,0.0229,0.0142,0.0032,-0.0059,-0.0118,-0.0168,0.0199,0.02,0.02,0.0201,0,0.0564,0.0579,0.0618,0.07,0.0762,0.0836,0.0917,0.0989,0.1034,0.112,0.1243,0.1272,0.1095,0.0944,0.0648,0.0487,0.0149,0.023,0.0112,-0.0003,-0.0064,-0.013,0.0156,0.0205,0.0204,0.0204,0.0204,0.0204,0.0611,0.0651,0.0708,0.0791,0.0869,0.0983,0.107,0.1186,0.1331,0.1481,0.1492,0.1581,0.1296,0.0909,0.0657,0.021,0.0184,0.0078,0.0,-0.0046,-0.0124,0.0169,0.0197,0.0196,0.0196,0.0195,0.0195,0,0.0669,0.0719,0.0798,0.0901,0.1007,0.1033,0.1191,0.1304,0.1515,0.1666,0.1798,0.1739,0.1391,0.0965,0.0377,0.0059,-0.0089,-0.0117,-0.019,-0.023,0.0046,0.0025,0.0022,0.0022,0.0022,0.0022,0.0022,0.0023,0.0701,0.0786,0.0827,0.1006,0.109,0.1242,0.1346,0.1528,0.1675,0.191,0.1996,0.2025,0.1737,0.0709,0.0024,-0.015,-0.0371,-0.0415,-0.054,-0.0353,-0.0341,-0.0329,-0.0366,-0.0452,-0.0452,-0.0766,-0.0769,-0.0771]}],[{"header":{"parameterUnit":"m.s-1","parameterCategory":2,"la1":30.2991,"la2":30.254,"lo1":-89.0895,"lo2":-89.0444,"dy":0.0017,"dx":0.0017,"nx":28,"ny":28,"refTime":"2025-03-31T09:00:00:Z","depth":"2","parameterNumber":2,"parameterNumberName":"U-component_of_CURRENTS"},"data":[0,0,0,0,0,0,0,0,0,0,0,0,0,0,0,0,0,0,0,0,0,0,0,0,0,0,0,0,0,0,0,0,0,0,0,0,0,0,0,0,0,0,0,0,0,0,0,0,0,0,0,0,0,0,0,0,0,0,0.25,0.25,0,0.2517,0.2517,0.2517,0.2509,0.2509,0.2509,0.2508,0.2487,0.2487,0.2487,0,0,0,0,0,0,0,0,0,0,0,0,0,0.2488,0.2488,0.25,0.25,0.25,0.2517,0.2517,0.2517,0.2509,0.2509,0.2509,0.2508,0.2487,0.2487,0.2487,0,0,0,0,0,0,0,0,0,0,0,0,0,0.2496,0.2488,0.25,0.2499,0.25,0.2517,0.2517,0.2517,0.2509,0.2509,0.2509,0.2508,0.2488,0.2487,0.2487,0.2493,0,0,0.2485,0.2485,0,0,0,0,0,0,0,0,0.2496,0.2497,0.2499,0.2499,0.25,0.2512,0.2505,0.2508,0.251,0.2504,0.2508,0.2508,0.2493,0.2492,0.2495,0.2492,0.2491,0.2485,0.2485,0.2485,0.2485,0,0,0,0,0,0,0,0.2495,0.2496,0.2505,0.25,0.25,0.2508,0.2509,0.2506,0.2499,0.2505,0.2504,0.2509,0.2493,0.2496,0.2494,0.2491,0.2485,0.2485,0.2485,0.2485,0.256,0.2562,0,0,0,0,0,0,0.2495,0.2495,0.2505,0.2506,0.2498,0.2509,0.2509,0.2507,0.25,0.2499,0.2509,0.2508,0.2496,0.2495,0.2494,0.2544,0.2485,0.2485,0.2484,0.2558,0.256,0.2563,0,0,0,0,0,0,0.2494,0.2495,0.2504,0.2502,0.2504,0.2509,0.2507,0.2508,0.2526,0.2504,0.2502,0.2528,0.2496,0.2494,0.2509,0.2541,0.2484,0.2484,0.2555,0.2559,0.2562,0.2617,0,0,0,0,0,0,0.2494,0.2495,0.2505,0.2502,0.2504,0.2527,0.2508,0.2509,0.2529,0.2528,0.252,0.2517,0.2496,0.251,0.2508,0.254,0.2484,0.2552,0.2557,0.2561,0.2613,0.2622,0.263,0,0,0,0,0,0.2493,0.2499,0.2505,0.2507,0.2513,0.2528,0.2531,0.2532,0.253,0.2545,0.2541,0.2518,0.2536,0.2511,0.2509,0.2541,0.255,0.2555,0.256,0.2609,0.262,0.263,0,0,0,0,0,0,0.2497,0.2499,0.2505,0.2512,0.2529,0.2528,0.2537,0.2546,0.2556,0.2554,0.2536,0.2533,0.257,0.255,0.2522,0.258,0.2544,0.2549,0.2582,0.2593,0.2601,0.262,0.2483,0,0,0,0,0,0.2504,0.2506,0.252,0.2526,0.2534,0.2543,0.2554,0.2559,0.2562,0.2567,0.2566,0.257,0.2588,0.2584,0.2598,0.2612,0.2615,0.2638,0.2647,0.2654,0.2672,0.2707,0.272,0.2579,0.2579,0.2579,0,0,0.2505,0.2508,0.2509,0.2527,0.2534,0.2558,0.2548,0.2565,0.2588,0.2562,0.2592,0.2607,0.2606,0.2635,0.2648,0.2617,0.2697,0.2661,0.2667,0.268,0.2714,0.2727,0.2739,0.2583,0.2582,0.2582,0,0,0.251,0.2513,0.2525,0.2545,0.2568,0.2573,0.2587,0.2606,0.2615,0.2646,0.2649,0.2683,0.2691,0.2705,0.2709,0.2776,0.2757,0.2785,0.2823,0.2857,0.2869,0.2879,0.2896,0.2907,0.2771,0.2771,0.2771,0,0.2518,0.2525,0.2533,0.256,0.2569,0.2586,0.2606,0.2628,0.2654,0.2672,0.2662,0.2732,0.2728,0.2777,0.2804,0.2796,0.2807,0.2775,0.2867,0.2877,0.2887,0.2902,0.2913,0.2774,0.2774,0.2774,0.2773,0,0.2538,0.2552,0.2559,0.2591,0.2612,0.2624,0.2655,0.2691,0.2705,0.2729,0.2793,0.2804,0.2838,0.2856,0.2846,0.2922,0.2907,0.2886,0.2834,0.2904,0.2916,0.2927,0.2779,0.2778,0.2777,0.2776,0,0,0.2516,0.2562,0.2563,0.2583,0.2621,0.2637,0.2684,0.2726,0.2765,0.281,0.2854,0.2914,0.2931,0.2942,0.2947,0.2984,0.3057,0.2966,0.2966,0.2973,0.3129,0.3045,0.3048,0.305,0.3053,0.3055,0.3108,0,0.2522,0.2562,0.2582,0.2619,0.2638,0.2672,0.2712,0.2764,0.2801,0.2855,0.2898,0.2953,0.2957,0.2982,0.302,0.3061,0.3091,0.3044,0.307,0.3071,0.2979,0.306,0.2814,0.2835,0.3118,0.312,0.3122,0,0.2525,0.255,0.2576,0.2626,0.2637,0.2667,0.2725,0.2772,0.2859,0.29,0.2969,0.2996,0.3079,0.3058,0.3158,0.313,0.314,0.3162,0.3163,0.3075,0.3008,0.2814,0.2844,0.314,0.3138,0.3137,0.3136,0,0.2484,0.254,0.2548,0.2566,0.2633,0.2655,0.27,0.2783,0.2828,0.294,0.2982,0.3072,0.3117,0.3171,0.3209,0.3194,0.3301,0.3267,0.32,0.3193,0.2985,0.2955,0.3329,0.3329,0.3329,0.3329,0.3329,0,0.246,0.2475,0.2533,0.2542,0.2575,0.2635,0.2684,0.2763,0.2853,0.2908,0.2999,0.305,0.3153,0.3205,0.3234,0.3256,0.3314,0.3233,0.3213,0.2996,0.2969,0.323,0.3218,0.3331,0.3331,0.333,0.333,0,0.2406,0.2439,0.2463,0.2527,0.2552,0.258,0.2674,0.2715,0.2827,0.2899,0.2938,0.306,0.3149,0.3215,0.3305,0.3275,0.3312,0.3292,0.3028,0.2976,0.3173,0.3163,0.3235,0.3233,0.3231,0.3229,0.3228,0,0.2378,0.238,0.2441,0.2451,0.2474,0.2532,0.2567,0.2694,0.2738,0.289,0.2906,0.3026,0.3078,0.3181,0.3179,0.321,0.3277,0.2975,0.2901,0.3197,0.3169,0.3163,0.3156,0.2645,0.2639,0.2634,0.263,0,0.2325,0.2338,0.2358,0.238,0.2405,0.2448,0.2511,0.2541,0.2676,0.2738,0.282,0.288,0.2984,0.2913,0.2956,0.2934,0.2956,0.2875,0.3261,0.2707,0.2644,0.2616,0.2628,0.2586,0.2591,0.2594,0.2596,0.2598,0.2278,0.2271,0.2285,0.2297,0.2327,0.2335,0.233,0.2395,0.2443,0.2502,0.2641,0.2649,0.2709,0.2652,0.2584,0.2527,0.2736,0.2608,0.2622,0.2641,0.2563,0.2501,0.2401,0.2404,0.2406,0.2409,0.2411,0,0.221,0.2204,0.2204,0.2199,0.2175,0.2238,0.226,0.2223,0.2216,0.231,0.2364,0.2199,0.2164,0.2218,0.2073,0.2082,0.2044,0.1987,0.1918,0.1964,0.2005,0.1893,0.1553,0.155,0.1548,0.1545,0,0,0.2171,0.213,0.2119,0.2044,0.2043,0.1975,0.1962,0.1933,0.1953,0.1923,0.191,0.2082,0.2162,0.1829,0.1798,0.1648,0.1786,0.1577,0.2273,0.2239,0.2276,0.238,0.2262,0,0,0,0,0]},{"header":{"parameterUnit":"m.s-1","parameterCategory":2,"la1":30.2991,"la2":30.254,"lo1":-89.0895,"lo2":-89.0444,"dy":0.0017,"dx":0.0017,"nx":28,"ny":28,"refTime":"2025-03-31T09:00:00:Z","depth":"2","parameterNumber":3,"parameterNumberName":"V-component_of_CURRENTS"},"data":[0,0,0,0,0,0,0,0,0,0,0,0,0,0,0,0,0,0,0,0,0,0,0,0,0,0,0,0,0,0,0,0,0,0,0,0,0,0,0,0,0,0,0,0,0,0,0,0,0,0,0,0,0,0,0,0,0,0,0.0196,0.0196,0,0.0164,0.0164,0.0163,0.0135,0.0135,0.0135,0.0134,0.0098,0.0097,0.0096,0,0,0,0,0,0,0,0,0,0,0,0,0,0.02,0.02,0.0196,0.0195,0.0195,0.0164,0.0163,0.0163,0.0135,0.0135,0.0135,0.0134,0.0098,0.0097,0.0096,0,0,0,0,0,0,0,0,0,0,0,0,0,0.0185,0.02,0.0196,0.0178,0.0176,0.0164,0.0163,0.0163,0.0135,0.0135,0.0135,0.0134,0.0099,0.0097,0.0096,0.0096,0,0,0.0093,0.0092,0,0,0,0,0,0,0,0,0.0186,0.0185,0.0181,0.0179,0.0177,0.0154,0.0152,0.0141,0.0135,0.015,0.0134,0.0134,0.0117,0.0114,0.0108,0.0095,0.0093,0.0093,0.0092,0.0092,0.0091,0,0,0,0,0,0,0,0.0187,0.0186,0.0182,0.0181,0.0179,0.0161,0.0159,0.0149,0.0135,0.0149,0.0147,0.0145,0.0116,0.0109,0.0107,0.0093,0.0093,0.0092,0.0091,0.0091,0.0068,0.0068,0,0,0,0,0,0,0.0196,0.0188,0.0183,0.0181,0.0182,0.0161,0.0159,0.0161,0.0135,0.0131,0.0145,0.0144,0.0111,0.0108,0.0106,0.0113,0.0092,0.0091,0.009,0.0068,0.0068,0.0068,0,0,0,0,0,0,0.0196,0.0196,0.0185,0.0184,0.0182,0.0162,0.0165,0.0161,0.0154,0.0133,0.0128,0.0143,0.0111,0.0107,0.01,0.0111,0.009,0.0089,0.0068,0.0068,0.0068,0.0122,0,0,0,0,0,0,0.0196,0.0196,0.02,0.0185,0.0182,0.0186,0.0165,0.016,0.0154,0.0152,0.0129,0.0126,0.011,0.0102,0.0099,0.0109,0.0088,0.0068,0.0068,0.0068,0.012,0.0124,0.0128,0,0,0,0,0,0.0196,0.021,0.02,0.0199,0.0188,0.0187,0.0184,0.0167,0.0154,0.0158,0.014,0.0126,0.0101,0.0102,0.0098,0.0108,0.0068,0.0068,0.0068,0.0119,0.0124,0.0128,0,0,0,0,0,0,0.0215,0.0208,0.0197,0.0207,0.0199,0.0183,0.0185,0.0171,0.0159,0.0155,0.0131,0.0126,0.0121,0.0106,0.0108,0.01,0.0081,0.008,0.012,0.0125,0.0128,0.0147,0.0087,0,0,0,0,0,0.0221,0.0229,0.0216,0.0224,0.0222,0.0202,0.0198,0.0187,0.0175,0.0168,0.0152,0.0132,0.0119,0.0116,0.0099,0.0102,0.0081,0.0103,0.0106,0.011,0.0122,0.0096,0.0099,0.0069,0.0069,0.0069,0,0,0.0229,0.0228,0.0231,0.0228,0.0219,0.023,0.0199,0.0199,0.0209,0.0167,0.0173,0.0143,0.012,0.0118,0.0115,0.011,0.0106,0.011,0.0113,0.0124,0.0097,0.01,0.0102,0.0069,0.0069,0.0069,0,0,0.0259,0.025,0.0268,0.0267,0.026,0.0251,0.0253,0.0237,0.023,0.0228,0.0197,0.0178,0.016,0.0146,0.0137,0.0151,0.0121,0.014,0.0183,0.0157,0.016,0.0162,0.0136,0.0135,0.0148,0.0148,0.0148,0,0.0269,0.0292,0.0272,0.0291,0.0299,0.0265,0.0289,0.0279,0.0262,0.0263,0.0238,0.0202,0.0177,0.0178,0.0178,0.0161,0.0139,0.0171,0.0163,0.0165,0.0166,0.0139,0.0137,0.0151,0.0151,0.015,0.015,0,0.0314,0.0331,0.0343,0.0358,0.0361,0.0377,0.0363,0.036,0.034,0.0329,0.0316,0.0271,0.0254,0.0234,0.0212,0.0209,0.0188,0.0167,0.0157,0.0173,0.0142,0.014,0.0155,0.0154,0.0153,0.0152,0,0,0.0344,0.0371,0.0375,0.0398,0.0401,0.0412,0.0425,0.0433,0.0451,0.041,0.0425,0.0378,0.0344,0.033,0.0289,0.0262,0.0242,0.0223,0.0221,0.0206,0.0184,0.0172,0.0168,0.0218,0.0218,0.0218,0.0159,0,0.0387,0.0443,0.0442,0.0493,0.0522,0.0502,0.0523,0.0521,0.051,0.0512,0.0455,0.0448,0.0385,0.0373,0.0336,0.0268,0.0238,0.026,0.0165,0.0162,0.0156,0.0166,0.0186,0.0136,0.0156,0.0156,0.0156,0,0.0434,0.0469,0.0529,0.0572,0.0582,0.0602,0.0632,0.065,0.0639,0.0629,0.0602,0.0553,0.0508,0.0447,0.0344,0.036,0.0281,0.0219,0.0215,0.0186,0.0146,0.0122,0.013,0.0151,0.0151,0.0152,0.0152,0,0.0475,0.053,0.0584,0.0598,0.0637,0.0656,0.0676,0.0684,0.0717,0.0704,0.0714,0.0646,0.0616,0.0509,0.0373,0.036,0.0253,0.022,0.0134,0.0132,0.0124,0.0121,0.0149,0.0149,0.0149,0.0149,0.015,0,0.0528,0.057,0.0607,0.0637,0.0704,0.0709,0.0777,0.0782,0.0808,0.0856,0.0779,0.0789,0.0629,0.0543,0.0409,0.027,0.0281,0.0148,0.012,0.0142,0.0141,0.0135,0.0134,0.0147,0.0148,0.0148,0.0148,0,0.0567,0.0589,0.0656,0.0706,0.0726,0.0776,0.085,0.0902,0.0909,0.0965,0.0963,0.0902,0.0793,0.0625,0.0454,0.0329,0.0188,0.0133,0.0168,0.0145,0.0072,0.0075,0.0037,0.0037,0.0036,0.0035,0.0035,0,0.0592,0.063,0.0708,0.0754,0.0779,0.0853,0.091,0.095,0.1014,0.1037,0.107,0.0983,0.0938,0.0687,0.0456,0.0231,0.0191,0.0094,0.0072,0.0087,0.0062,0.0066,0.0069,0.0075,0.0075,0.0075,0.0075,0,0.0643,0.0666,0.0722,0.0817,0.0884,0.0976,0.1057,0.1121,0.117,0.1209,0.124,0.1203,0.0973,0.0759,0.0451,0.0292,0.0131,0.0085,0.0095,0.0105,0.0119,0.0096,0.0099,0.0074,0.0074,0.0074,0.0074,0.0074,0.0676,0.0724,0.0793,0.0885,0.097,0.1077,0.1156,0.1243,0.1341,0.1397,0.1365,0.1309,0.1066,0.0681,0.0414,0.0127,0.0143,0.0032,0.0034,0.0035,0.0055,0.0067,0.0016,0.0016,0.0016,0.0016,0.0016,0,0.0717,0.077,0.0856,0.0965,0.1062,0.1102,0.1241,0.1317,0.1425,0.1471,0.149,0.1244,0.1008,0.0716,0.0307,0.0066,0.0038,-0.0028,-0.0001,0.0002,0.0005,0.0023,-0.0025,-0.0026,-0.0027,-0.0027,0,0,0.0739,0.0819,0.0862,0.1016,0.1098,0.123,0.131,0.1413,0.1477,0.1517,0.1485,0.1436,0.1092,0.0786,0.0459,0.022,0.0159,0.016,0.0221,0.0296,0.0301,0.007,0.0106,0,0,0,0,0]}],[{"header":{"parameterUnit":"m.s-1","parameterCategory":2,"la1":30.2991,"la2":30.254,"lo1":-89.0895,"lo2":-89.0444,"dy":0.0017,"dx":0.0017,"nx":28,"ny":28,"refTime":"2025-03-31T09:00:00:Z","depth":"4","parameterNumber":2,"parameterNumberName":"U-component_of_CURRENTS"},"data":[0,0,0,0,0,0,0,0,0,0,0,0,0,0,0,0,0,0,0,0,0,0,0,0,0,0,0,0,0,0,0,0,0,0,0,0,0,0,0,0,0,0,0,0,0,0,0,0,0,0,0,0,0,0,0,0,0,0,0.1507,0.1508,0,0.1552,0.1553,0.1553,0.1604,0.1605,0.1606,0.1607,0.1671,0.1672,0.1673,0,0,0,0,0,0,0,0,0,0,0,0,0,0.1498,0.1498,0.1507,0.1508,0.1508,0.1552,0.1553,0.1553,0.1604,0.1605,0.1606,0.1607,0.1671,0.1672,0.1673,0,0,0,0,0,0,0,0,0,0,0,0,0,0.1517,0.1498,0.1507,0.154,0.1544,0.1552,0.1553,0.1554,0.1604,0.1605,0.1607,0.1608,0.1671,0.1672,0.1673,0.1655,0,0,0.1677,0.1678,0,0,0,0,0,0,0,0,0.1516,0.1518,0.1535,0.1538,0.1542,0.1575,0.1574,0.1589,0.1604,0.158,0.1607,0.1609,0.1641,0.1645,0.1648,0.1658,0.1661,0.1677,0.1678,0.1679,0.1679,0,0,0,0,0,0,0,0.1515,0.1516,0.1524,0.1535,0.154,0.1564,0.1568,0.1577,0.1602,0.1582,0.1586,0.1593,0.1643,0.1647,0.165,0.1662,0.1677,0.1678,0.1679,0.168,0.1776,0.1778,0,0,0,0,0,0,0.1508,0.1514,0.1522,0.1525,0.1533,0.1563,0.1568,0.1562,0.1601,0.1609,0.1592,0.1595,0.1644,0.1648,0.1653,0.1734,0.1679,0.168,0.1681,0.1775,0.1777,0.1779,0,0,0,0,0,0,0.1508,0.1508,0.1521,0.1523,0.1526,0.1562,0.1556,0.1562,0.1601,0.1609,0.1617,0.1627,0.1645,0.1651,0.1695,0.1733,0.1681,0.1682,0.1773,0.1775,0.1778,0.1832,0,0,0,0,0,0,0.1507,0.1507,0.1518,0.1522,0.1526,0.1547,0.1555,0.1562,0.1601,0.1607,0.1641,0.1646,0.1646,0.1694,0.1697,0.1734,0.1683,0.177,0.1774,0.1777,0.1828,0.1836,0.1843,0,0,0,0,0,0.1506,0.1509,0.1517,0.152,0.1533,0.1548,0.1553,0.1582,0.1602,0.1621,0.1651,0.1647,0.1717,0.1696,0.1699,0.1737,0.1769,0.1773,0.1777,0.1824,0.1834,0.1843,0,0,0,0,0,0,0.1517,0.1514,0.1524,0.1528,0.1548,0.1558,0.1583,0.1599,0.1636,0.1655,0.1663,0.167,0.1724,0.1723,0.17,0.1777,0.1745,0.1749,0.178,0.1789,0.1797,0.179,0.1684,0,0,0,0,0,0.152,0.1523,0.1529,0.154,0.1551,0.1573,0.159,0.1609,0.1634,0.1654,0.1678,0.1709,0.1736,0.1758,0.1776,0.1814,0.1817,0.1844,0.1851,0.1858,0.1856,0.19,0.1911,0.1792,0.1792,0.1792,0,0,0.153,0.153,0.1535,0.1544,0.1564,0.1581,0.1588,0.1622,0.1648,0.1653,0.171,0.1735,0.1752,0.1798,0.1823,0.1808,0.1896,0.1863,0.1868,0.1863,0.1905,0.1917,0.1927,0.1794,0.1794,0.1794,0,0,0.154,0.1552,0.1554,0.1571,0.16,0.1612,0.1628,0.1657,0.1687,0.1732,0.175,0.18,0.1837,0.1861,0.1875,0.1935,0.1932,0.1949,0.1985,0.2028,0.2038,0.2047,0.207,0.208,0.1956,0.1956,0.1956,0,0.156,0.1554,0.1563,0.1574,0.1595,0.1629,0.1647,0.1675,0.172,0.1749,0.1762,0.1844,0.1864,0.1919,0.1947,0.1952,0.1969,0.1947,0.2037,0.2046,0.2054,0.2076,0.2086,0.1959,0.1959,0.1958,0.1958,0,0.1553,0.1573,0.1584,0.1602,0.1626,0.1655,0.1685,0.1728,0.1772,0.1799,0.1874,0.1908,0.1959,0.198,0.1983,0.2056,0.2047,0.2039,0.2011,0.2069,0.2088,0.2099,0.1963,0.1962,0.1961,0.1961,0,0,0.1549,0.1573,0.1584,0.1601,0.1648,0.1662,0.1717,0.1766,0.1814,0.1869,0.1931,0.1991,0.2025,0.2043,0.2065,0.2105,0.2183,0.2103,0.2104,0.212,0.2273,0.2126,0.2123,0.2196,0.2198,0.22,0.2265,0,0.1553,0.1566,0.1585,0.1628,0.164,0.1694,0.174,0.1795,0.1854,0.1925,0.1977,0.2047,0.2044,0.2092,0.213,0.2176,0.2212,0.2165,0.2219,0.2221,0.2077,0.213,0.2206,0.2272,0.2275,0.2276,0.2278,0,0.1537,0.155,0.1578,0.1635,0.165,0.1691,0.1778,0.1827,0.1925,0.1976,0.2052,0.2097,0.218,0.2168,0.226,0.2235,0.2259,0.228,0.2283,0.2129,0.2091,0.2202,0.2295,0.2294,0.2293,0.2292,0.229,0,0.15,0.155,0.1573,0.1592,0.1658,0.1704,0.1758,0.1852,0.1907,0.2028,0.2084,0.2172,0.2239,0.2285,0.2332,0.2315,0.2416,0.2395,0.2277,0.2267,0.2356,0.2346,0.245,0.245,0.245,0.245,0.245,0,0.1472,0.1501,0.1567,0.1578,0.1635,0.1695,0.1779,0.1847,0.1958,0.2021,0.2118,0.2174,0.2276,0.234,0.2362,0.2346,0.2444,0.2285,0.2276,0.2377,0.2369,0.2363,0.2352,0.2452,0.2452,0.2451,0.2451,0,0.1418,0.146,0.1496,0.1578,0.1615,0.1661,0.1784,0.1835,0.1954,0.2044,0.2089,0.221,0.2287,0.2357,0.2442,0.2372,0.2384,0.2353,0.2461,0.2457,0.2197,0.2188,0.222,0.2215,0.2211,0.2208,0.2205,0,0.1383,0.1394,0.1488,0.1516,0.1562,0.1645,0.1697,0.1824,0.1876,0.2039,0.2064,0.2191,0.2253,0.2247,0.2331,0.2355,0.2327,0.2307,0.2237,0.2186,0.2175,0.2173,0.2169,0.2199,0.2198,0.2197,0.2196,0,0.1322,0.1373,0.1401,0.1459,0.1519,0.157,0.1658,0.1684,0.1822,0.1948,0.1992,0.2032,0.2107,0.2156,0.2192,0.2203,0.2305,0.2266,0.2273,0.2206,0.2161,0.2154,0.2155,0.2182,0.2184,0.2185,0.2186,0,0.1292,0.1297,0.1344,0.1384,0.1451,0.1467,0.1525,0.1579,0.1647,0.182,0.1834,0.1962,0.2086,0.2079,0.2114,0.2112,0.2074,0.1992,0.2013,0.2029,0.1934,0.1847,0.1765,0,0,0,0,0,0.125,0.1236,0.1262,0.1286,0.1346,0.1386,0.1481,0.154,0.1676,0.1661,0.1742,0.1802,0.1847,0.1916,0.1877,0.203,0.2084,0.1974,0.1999,0.2107,0.2122,0.2028,0,0,0,0,0,0,0.1215,0.1235,0.1225,0.1198,0.1201,0.125,0.1306,0.1395,0.1393,0.1541,0.1579,0.169,0.1768,0.1858,0.1844,0.1864,0.184,0.2061,0.2056,0.2098,0.2112,0.2125,0.2033,0,0,0,0,0]},{"header":{"parameterUnit":"m.s-1","parameterCategory":2,"la1":30.2991,"la2":30.254,"lo1":-89.0895,"lo2":-89.0444,"dy":0.0017,"dx":0.0017,"nx":28,"ny":28,"refTime":"2025-03-31T09:00:00:Z","depth":"4","parameterNumber":3,"parameterNumberName":"V-component_of_CURRENTS"},"data":[0,0,0,0,0,0,0,0,0,0,0,0,0,0,0,0,0,0,0,0,0,0,0,0,0,0,0,0,0,0,0,0,0,0,0,0,0,0,0,0,0,0,0,0,0,0,0,0,0,0,0,0,0,0,0,0,0,0,0.0206,0.0206,0,0.0193,0.0192,0.0192,0.0176,0.0175,0.0175,0.0175,0.0152,0.0152,0.0151,0,0,0,0,0,0,0,0,0,0,0,0,0,0.0192,0.0192,0.0206,0.0206,0.0205,0.0193,0.0192,0.0192,0.0176,0.0175,0.0175,0.0175,0.0152,0.0152,0.0151,0,0,0,0,0,0,0,0,0,0,0,0,0,0.019,0.0192,0.0206,0.0196,0.0195,0.0193,0.0192,0.0192,0.0176,0.0175,0.0175,0.0175,0.0152,0.0152,0.0151,0.0154,0,0,0.015,0.0149,0,0,0,0,0,0,0,0,0.019,0.019,0.0198,0.0197,0.0196,0.0186,0.0179,0.0179,0.0176,0.0183,0.0175,0.0175,0.0163,0.0162,0.0159,0.0153,0.0152,0.0149,0.0149,0.0149,0.0149,0,0,0,0,0,0,0,0.019,0.0191,0.02,0.0197,0.0196,0.0184,0.0183,0.0179,0.0174,0.0182,0.0181,0.018,0.0162,0.016,0.0159,0.0152,0.0149,0.0149,0.0149,0.0148,0.0147,0.0147,0,0,0,0,0,0,0.0195,0.0191,0.02,0.02,0.0192,0.0185,0.0184,0.0189,0.0175,0.0172,0.018,0.0179,0.0161,0.0159,0.0158,0.0172,0.0149,0.0148,0.0148,0.0147,0.0147,0.0148,0,0,0,0,0,0,0.0194,0.0196,0.0201,0.0195,0.0195,0.0185,0.0191,0.0189,0.0188,0.0174,0.0171,0.0182,0.0161,0.0159,0.0159,0.0171,0.0148,0.0147,0.0146,0.0147,0.0147,0.0194,0,0,0,0,0,0,0.0194,0.0196,0.0203,0.0196,0.0195,0.0207,0.0191,0.0189,0.0188,0.0187,0.0174,0.0171,0.016,0.016,0.0158,0.017,0.0147,0.0146,0.0147,0.0147,0.0192,0.0196,0.0199,0,0,0,0,0,0.0194,0.0208,0.0203,0.0204,0.0205,0.0208,0.0207,0.0198,0.0189,0.0195,0.0184,0.0172,0.0162,0.016,0.0158,0.0169,0.0146,0.0146,0.0147,0.019,0.0195,0.0199,0,0,0,0,0,0,0.0206,0.0208,0.0202,0.0216,0.0214,0.0205,0.021,0.0202,0.0198,0.0196,0.0178,0.0176,0.0179,0.0167,0.0165,0.0169,0.0151,0.0152,0.0185,0.0189,0.0193,0.0205,0.0147,0,0,0,0,0,0.0212,0.0224,0.0219,0.023,0.0231,0.022,0.022,0.0214,0.0208,0.0206,0.0197,0.0186,0.018,0.0179,0.0171,0.0177,0.0153,0.0182,0.0186,0.0189,0.0197,0.0165,0.0166,0.015,0.015,0.015,0,0,0.0219,0.0222,0.0228,0.0234,0.023,0.0242,0.0219,0.0224,0.0235,0.0205,0.0216,0.0199,0.0183,0.0189,0.0189,0.0182,0.018,0.019,0.0193,0.0199,0.0166,0.0167,0.0169,0.015,0.015,0.015,0,0,0.0243,0.0242,0.026,0.0263,0.0264,0.026,0.0263,0.0257,0.0255,0.0262,0.0241,0.0232,0.0227,0.0217,0.0211,0.023,0.0199,0.0227,0.0259,0.0228,0.023,0.023,0.0199,0.0196,0.0231,0.0231,0.0231,0,0.025,0.0274,0.0265,0.0284,0.0292,0.0271,0.0293,0.0289,0.0284,0.0287,0.0273,0.0257,0.0241,0.0245,0.0251,0.024,0.0215,0.0245,0.0233,0.0234,0.0234,0.0201,0.0198,0.0233,0.0233,0.0233,0.0233,0,0.0287,0.0307,0.0318,0.0336,0.0343,0.0358,0.0353,0.0357,0.0348,0.0342,0.0341,0.0313,0.0305,0.0296,0.0281,0.0277,0.0257,0.024,0.0224,0.0238,0.0203,0.0199,0.0237,0.0236,0.0235,0.0235,0,0,0.0305,0.0338,0.0343,0.0364,0.0374,0.0385,0.0401,0.0412,0.0427,0.0408,0.042,0.0398,0.0376,0.0367,0.034,0.0313,0.0287,0.0282,0.0279,0.0254,0.0217,0.0204,0.0197,0.0266,0.0266,0.0265,0.0192,0,0.0337,0.0387,0.0393,0.0439,0.0464,0.0456,0.0477,0.0481,0.0476,0.0481,0.0443,0.0444,0.0405,0.0401,0.0368,0.0309,0.0279,0.0309,0.0205,0.0202,0.019,0.0193,0.0264,0.0188,0.0187,0.0186,0.0186,0,0.0372,0.0403,0.0456,0.0498,0.0508,0.0531,0.0558,0.0577,0.0572,0.0567,0.055,0.0516,0.0482,0.0443,0.0349,0.0369,0.0301,0.0248,0.0243,0.0214,0.0181,0.017,0.0178,0.0178,0.0179,0.0179,0.018,0,0.0393,0.0447,0.0494,0.0509,0.055,0.0572,0.0594,0.0604,0.0632,0.0623,0.063,0.0576,0.0553,0.0462,0.0353,0.0349,0.0239,0.0218,0.0141,0.0139,0.0152,0.0152,0.0149,0.0149,0.0149,0.0149,0.015,0,0.0426,0.0464,0.0511,0.0537,0.0598,0.0611,0.067,0.0678,0.07,0.0732,0.068,0.0678,0.0555,0.0477,0.037,0.0244,0.0249,0.0149,0.0121,0.0172,0.0176,0.0148,0.0149,0.0147,0.0147,0.0148,0.0148,0,0.0443,0.0473,0.0533,0.0588,0.0612,0.0656,0.0729,0.0768,0.0779,0.0815,0.0815,0.0756,0.0652,0.052,0.0369,0.0274,0.015,0.0103,0.0171,0.0148,0.0065,0.0069,0.0011,0.001,0.0009,0.0009,0.0008,0,0.0456,0.0489,0.0571,0.0613,0.0644,0.0715,0.0766,0.0807,0.0848,0.086,0.0874,0.0794,0.0732,0.0513,0.037,0.0164,0.0131,0.006,0.0059,0.0073,0.0051,0.0057,0.0062,0.0007,0.0006,0.0006,0.0006,0,0.048,0.051,0.056,0.0649,0.0714,0.0793,0.0863,0.0898,0.0938,0.0948,0.0916,0.0805,0.0688,0.0516,0.0356,0.0207,0.0102,0.005,0.0051,0.0049,0.0066,0.0047,0.0053,0.0003,0.0003,0.0004,0.0004,0,0.0497,0.0533,0.0599,0.0678,0.0763,0.0838,0.088,0.0922,0.0962,0.0965,0.0952,0.0825,0.0755,0.0538,0.0393,0.0244,0.0202,0.0141,0.0136,0.0137,0.0193,0.0234,0.0201,0,0,0,0,0,0.051,0.0549,0.0622,0.0707,0.0793,0.0844,0.093,0.0964,0.0997,0.0979,0.0967,0.0855,0.0641,0.0557,0.0406,0.0369,0.0173,0.0185,0.0099,-0.0014,-0.0011,0.0031,0,0,0,0,0,0,0.0515,0.0581,0.0616,0.0717,0.0777,0.0874,0.0931,0.0957,0.095,0.0956,0.0851,0.08,0.06,0.0722,0.0396,0.0353,0.0273,0.0091,0.0088,-0.0016,-0.0013,-0.001,0.0034,0,0,0,0,0]}]]